When you browse on this site, cookies collect data to enhance your experience and personalize the content and advertising you see.
Visit our Privacy Policy to learn more. By continuing to use the site, you agree to this use of cookies and data.
  • In United Kingdom
  • List of Countries
  • For 7 days
  • Water Temperature
  • Satellite Maps
  • Weather Map
  • Weather Widgets
  • user-avatar
    Login

    Hourly Weather Ovsyanykivka

    Today, 25 April, Thursday

    Time Temperature Precipitation Wind Pressure Humidity
    00:00 +10°C° 0 mm 3 mps 752 mmHg 55%
    01:00 +10°C° 0 mm 2 mps 752 mmHg 56%
    02:00 +9°C° 0 mm 2 mps 752 mmHg 57%
    03:00 +9°C° 0 mm 2 mps 752 mmHg 57%
    04:00 +9°C° 0 mm 2 mps 752 mmHg 58%
    05:00 +10°C° 0 mm 1 mps 752 mmHg 58%
    06:00 +12°C° 0 mm 1 mps 752 mmHg 53%
    07:00 +14°C° 0 mm 1 mps 752 mmHg 49%
    08:00 +16°C° 0 mm 2 mps 752 mmHg 44%
    09:00 +18°C° 0 mm 2 mps 752 mmHg 40%
    10:00 +20°C° 0 mm 1 mps 752 mmHg 35%
    11:00 +22°C° 0 mm 1 mps 752 mmHg 31%
    12:00 +21°C° 0 mm 2 mps 752 mmHg 31%
    13:00 +22°C° 0 mm 3 mps 751 mmHg 30%
    14:00 +22°C° 0 mm 3 mps 751 mmHg 30%
    15:00 +22°C° 0 mm 3 mps 751 mmHg 32%
    16:00 +21°C° 0 mm 3 mps 750 mmHg 34%
    17:00 +21°C° 0 mm 3 mps 750 mmHg 36%
    18:00 +19°C° 0 mm 3 mps 750 mmHg 41%
    19:00 +17°C° 0 mm 3 mps 750 mmHg 46%
    20:00 +15°C° 0 mm 2 mps 749 mmHg 52%
    21:00 +15°C° 0 mm 2 mps 749 mmHg 52%
    22:00 +14°C° 0 mm 2 mps 749 mmHg 52%
    23:00 +13°C° 0 mm 2 mps 750 mmHg 53%

    Tomorrow, 26 April, Friday

    Time Temperature Precipitation Wind Pressure Humidity
    00:00 +13°C° 0 mm 1 mps 749 mmHg 52%
    01:00 +12°C° 0 mm 1 mps 749 mmHg 52%
    02:00 +12°C° 0 mm 1 mps 749 mmHg 51%
    03:00 +11°C° 0 mm 1 mps 749 mmHg 52%
    04:00 +11°C° 0 mm 1 mps 749 mmHg 54%
    05:00 +11°C° 0 mm 1 mps 749 mmHg 55%
    06:00 +12°C° 0 mm 1 mps 749 mmHg 51%
    07:00 +14°C° 0 mm 1 mps 749 mmHg 47%
    08:00 +16°C° 0 mm 1 mps 749 mmHg 44%
    09:00 +18°C° 0 mm 2 mps 749 mmHg 41%
    10:00 +19°C° 0 mm 2 mps 749 mmHg 38%
    11:00 +20°C° 0 mm 3 mps 748 mmHg 35%
    12:00 +21°C° 0 mm 3 mps 748 mmHg 34%
    13:00 +21°C° 0 mm 4 mps 748 mmHg 32%
    14:00 +22°C° 0 mm 4 mps 748 mmHg 31%
    15:00 +21°C° 0 mm 4 mps 747 mmHg 31%
    16:00 +21°C° 0 mm 4 mps 747 mmHg 32%
    17:00 +20°C° 0 mm 3 mps 746 mmHg 33%
    18:00 +19°C° 0 mm 3 mps 746 mmHg 38%
    19:00 +17°C° 0 mm 3 mps 747 mmHg 43%
    20:00 +14°C° 0 mm 3 mps 747 mmHg 48%
    21:00 +13°C° 0 mm 3 mps 746 mmHg 50%
    22:00 +12°C° 0 mm 3 mps 746 mmHg 53%
    23:00 +11°C° 0 mm 3 mps 746 mmHg 56%

    Day after tomorrow, 27 April, Saturday

    Time Temperature Precipitation Wind Pressure Humidity
    00:00 +10°C° 0 mm 3 mps 746 mmHg 56%
    01:00 +10°C° 0 mm 2 mps 746 mmHg 57%
    02:00 +9°C° 0 mm 2 mps 746 mmHg 57%
    03:00 +9°C° 0 mm 2 mps 746 mmHg 59%
    04:00 +8°C° 0 mm 2 mps 745 mmHg 60%
    05:00 +8°C° 0 mm 2 mps 745 mmHg 61%
    06:00 +10°C° 0 mm 3 mps 745 mmHg 58%
    07:00 +12°C° 0 mm 3 mps 745 mmHg 54%
    08:00 +14°C° 0 mm 4 mps 745 mmHg 51%
    09:00 +17°C° 0 mm 4 mps 745 mmHg 48%
    10:00 +17°C° 0 mm 5 mps 745 mmHg 45%
    11:00 +20°C° 0 mm 5 mps 745 mmHg 42%
    12:00 +20°C° 0 mm 6 mps 744 mmHg 42%
    13:00 +21°C° 0 mm 6 mps 744 mmHg 42%
    14:00 +22°C° 0 mm 6 mps 743 mmHg 42%
    15:00 +21°C° 0 mm 6 mps 743 mmHg 44%
    16:00 +21°C° 0 mm 5 mps 743 mmHg 45%
    17:00 +21°C° 0 mm 5 mps 742 mmHg 47%
    18:00 +19°C° 0 mm 5 mps 742 mmHg 51%
    19:00 +17°C° 0 mm 4 mps 742 mmHg 55%
    20:00 +15°C° 0 mm 4 mps 742 mmHg 58%
    21:00 +14°C° 0 mm 4 mps 742 mmHg 60%
    22:00 +13°C° 0 mm 4 mps 742 mmHg 62%
    23:00 +12°C° 0 mm 3 mps 742 mmHg 64%

    28 April, Sunday

    Time Temperature Precipitation Wind Pressure Humidity
    00:00 +11°C° 0 mm 3 mps 742 mmHg 65%
    01:00 +10°C° 0 mm 3 mps 741 mmHg 66%
    02:00 +10°C° 0 mm 3 mps 741 mmHg 67%
    03:00 +9°C° 0 mm 3 mps 741 mmHg 68%
    04:00 +9°C° 0 mm 3 mps 741 mmHg 68%
    05:00 +8°C° 0 mm 3 mps 741 mmHg 68%
    06:00 +10°C° 0 mm 3 mps 741 mmHg 61%
    07:00 +12°C° 0 mm 4 mps 741 mmHg 55%
    08:00 +14°C° 0 mm 4 mps 741 mmHg 48%
    09:00 +16°C° 0 mm 5 mps 741 mmHg 45%
    10:00 +19°C° 0 mm 5 mps 741 mmHg 42%
    11:00 +20°C° 0 mm 6 mps 740 mmHg 39%
    12:00 +21°C° 0 mm 6 mps 740 mmHg 39%
    13:00 +21°C° 0 mm 6 mps 740 mmHg 39%
    14:00 +22°C° 0 mm 6 mps 740 mmHg 39%
    15:00 +22°C° 0 mm 5 mps 739 mmHg 40%
    16:00 +21°C° 0 mm 5 mps 739 mmHg 41%
    17:00 +21°C° 0 mm 5 mps 739 mmHg 42%
    18:00 +19°C° 0 mm 4 mps 739 mmHg 47%
    19:00 +16°C° 0 mm 3 mps 739 mmHg 52%
    20:00 +13°C° 0 mm 3 mps 739 mmHg 57%
    21:00 +13°C° 0 mm 3 mps 739 mmHg 58%
    22:00 +12°C° 0 mm 3 mps 739 mmHg 59%
    23:00 +12°C° 0 mm 3 mps 739 mmHg 59%

    29 April, Monday

    Time Temperature Precipitation Wind Pressure Humidity
    00:00 +11°C° 0 mm 3 mps 739 mmHg 62%
    01:00 +10°C° 0 mm 2 mps 738 mmHg 64%
    02:00 +9°C° 0 mm 2 mps 738 mmHg 66%
    03:00 +9°C° 0 mm 2 mps 738 mmHg 69%
    04:00 +9°C° 0 mm 2 mps 738 mmHg 73%
    05:00 +8°C° 0 mm 2 mps 738 mmHg 76%
    06:00 +10°C° 0 mm 2 mps 738 mmHg 72%
    07:00 +13°C° 0 mm 2 mps 738 mmHg 68%
    08:00 +15°C° 0 mm 2 mps 738 mmHg 63%
    09:00 +17°C° 0.1 mm 2 mps 738 mmHg 60%
    10:00 +18°C° 0.1 mm 3 mps 738 mmHg 57%
    11:00 +20°C° 0.1 mm 3 mps 738 mmHg 55%
    12:00 +20°C° 1.3 mm 3 mps 738 mmHg 53%
    13:00 +21°C° 1.3 mm 3 mps 738 mmHg 52%
    14:00 +21°C° 1.3 mm 2 mps 738 mmHg 51%
    15:00 +21°C° 0.8 mm 2 mps 738 mmHg 51%
    16:00 +21°C° 0.8 mm 2 mps 737 mmHg 51%
    17:00 +21°C° 0.8 mm 2 mps 737 mmHg 51%
    18:00 +19°C° 1.3 mm 2 mps 738 mmHg 60%
    19:00 +17°C° 1.3 mm 2 mps 738 mmHg 69%
    20:00 +15°C° 1.3 mm 2 mps 738 mmHg 79%
    21:00 +14°C° 0.4 mm 2 mps 738 mmHg 82%
    22:00 +13°C° 0.4 mm 3 mps 738 mmHg 84%
    23:00 +12°C° 0.4 mm 3 mps 738 mmHg 87%

    30 April, Tuesday

    Time Temperature Precipitation Wind Pressure Humidity
    00:00 +13°C° 0.8 mm 2 mps 738 mmHg 89%
    01:00 +13°C° 0.8 mm 2 mps 738 mmHg 90%
    02:00 +13°C° 0.8 mm 1 mps 738 mmHg 92%
    03:00 +12°C° 0.2 mm 2 mps 738 mmHg 92%
    04:00 +12°C° 0.2 mm 2 mps 737 mmHg 93%
    05:00 +12°C° 0.2 mm 2 mps 737 mmHg 93%
    06:00 +13°C° 0 mm 2 mps 738 mmHg 88%
    07:00 +14°C° 0 mm 2 mps 738 mmHg 84%
    08:00 +15°C° 0 mm 2 mps 738 mmHg 79%
    09:00 +16°C° 0.7 mm 3 mps 738 mmHg 76%
    10:00 +16°C° 0.7 mm 3 mps 738 mmHg 73%
    11:00 +17°C° 0.7 mm 4 mps 738 mmHg 70%
    12:00 +17°C° 1.7 mm 4 mps 737 mmHg 73%
    13:00 +15°C° 1.7 mm 4 mps 737 mmHg 76%
    14:00 +15°C° 1.7 mm 5 mps 737 mmHg 79%
    15:00 +14°C° 1 mm 5 mps 737 mmHg 82%
    16:00 +13°C° 1 mm 5 mps 737 mmHg 85%
    17:00 +13°C° 1 mm 6 mps 737 mmHg 88%
    18:00 +11°C° 0.6 mm 6 mps 737 mmHg 89%
    19:00 +10°C° 0.6 mm 6 mps 737 mmHg 90%
    20:00 +10°C° 0.6 mm 6 mps 737 mmHg 91%
    21:00 +9°C° 0.7 mm 6 mps 737 mmHg 91%
    22:00 +9°C° 0.7 mm 6 mps 737 mmHg 92%
    23:00 +8°C° 0.7 mm 6 mps 736 mmHg 92%
    Show more